This is the latest recevied weather packets stored in our database for station/object DM1HF-13. If no packets are shown the sender has not sent any weather packets the latest 10 day(s).
| Time | Temp. | Humidity | Pressure | Rain* | Wind** | Luminosity | Snow |
|---|---|---|---|---|---|---|---|
| 1777633817 | 21.11° C | 31% | 1030.7 hPa | 0 mm | - | 647 W/m² | - |
| 1777633516 | 21.11° C | 33% | 1030.7 hPa | 0 mm | - | 645 W/m² | - |
| 1777633216 | 21.11° C | 33% | 1030.9 hPa | 0 mm | - | 640 W/m² | - |
| 1777632916 | 21.11° C | 33% | 1030.9 hPa | 0 mm | - | 634 W/m² | - |
| 1777632617 | 21.11° C | 32% | 1030.9 hPa | 0 mm | - | 630 W/m² | - |
| 1777632316 | 20.56° C | 33% | 1031 hPa | 0 mm | - | 623 W/m² | - |
| 1777632016 | 20.56° C | 33% | 1031.1 hPa | 0 mm | - | 621 W/m² | - |
| 1777631716 | 20.56° C | 32% | 1031.1 hPa | 0 mm | - | 617 W/m² | - |
| 1777631417 | 20.56° C | 32% | 1031.1 hPa | 0 mm | - | 609 W/m² | - |
| 1777631116 | 20° C | 33% | 1031.2 hPa | 0 mm | - | 602 W/m² | - |
| 1777630816 | 20.56° C | 32% | 1031.2 hPa | 0 mm | - | 596 W/m² | - |
| 1777630516 | 20° C | 33% | 1031.3 hPa | 0 mm | - | 588 W/m² | - |
| 1777630216 | 20° C | 37% | 1031.2 hPa | 0 mm | - | 582 W/m² | - |
| 1777629916 | 20° C | 33% | 1031.2 hPa | 0 mm | - | 574 W/m² | - |
| 1777629616 | 20° C | 35% | 1031.3 hPa | 0 mm | - | 565 W/m² | - |
| 1777629316 | 19.44° C | 37% | 1031.4 hPa | 0 mm | - | 557 W/m² | - |
| 1777629016 | 18.89° C | 36% | 1031.3 hPa | 0 mm | - | 550 W/m² | - |
| 1777628716 | 19.44° C | 35% | 1031.3 hPa | 0 mm | - | 544 W/m² | - |
| 1777628416 | 19.44° C | 34% | 1031.3 hPa | 0 mm | - | 540 W/m² | - |
| 1777628116 | 19.44° C | 34% | 1031.4 hPa | 0 mm | - | 541 W/m² | - |
| 1777627816 | 19.44° C | 34% | 1031.4 hPa | 0 mm | - | 540 W/m² | - |
| 1777627516 | 19.44° C | 36% | 1031.5 hPa | 0 mm | - | 553 W/m² | - |
| 1777627216 | 19.44° C | 35% | 1031.5 hPa | 0 mm | - | 557 W/m² | - |
| 1777626917 | 19.44° C | 37% | 1031.6 hPa | 0 mm | - | 561 W/m² | - |
| 1777626616 | 19.44° C | 38% | 1031.6 hPa | 0 mm | - | 562 W/m² | - |
* Rain latest hour (hover to see other rain measurements)
** Current wind speed in m/s (hover to see current wind gust speed)